DELTA 1 DEB, 21972

Orbit data source: Space-Track

DELTA 1 DEB, 21972 is space debris in SSO originally from a launch on Thu, 12 Jun 1975 UTC launched from the Air Force Western Test Range (AFWTR). Debris objects in space refer to the collection of defunct objects orbiting the Earth. Examples of debris include non-operational satellites, rocket bodies, and fragments generated from explosions, collisions, or faulty payload assembly.

Loading next visibility...
Identifier
21972, 1975-052JW
Orbit
SSO
Country
Flag of USUS
Related business
Manufacturer
Unknown
Mission
Spacecraft
Bus & Motor
Unknown
Mass
Unknown
Launch date (UTC)
1975-06-12 (51 years ago)
Launch vehicle
Unknown
Launch site
Air Force Western Test Range (AFWTR)
Object type
Payload
Rocket body
Debris
Shape & HBR
Unknown shape, 0.1 m
Radar Cross Section
Small (<0.1 m²)

Expand to show TLE details & history
Last TLE update: 1 day ago

TLE from 1 day ago
0 DELTA 1 DEB
1 21972U 75052JW  26124.07009260  .00000219  00000-0  73770-3 0  9998
2 21972  99.6032 335.3743 0335232 192.9022 322.0270 12.92123992608700
Epoch: 2026-05-04T01:40Z
TLE epoch observation values (Epoch: 2026-05-04T01:40:56.000Z)
Latitude
27.13589°
Longitude
-86.87465°
Altitude
1,096.892 km
Speed
7.4 km/s
True Right ascension
10h 41m 17s
True Declination
27° 00' 10"
Sunlit
Object was in daylight at epoch
Visualization orbit readout
Latitude
Unknown
Longitude
Unknown
Altitude
Unknown
Speed
Unknown
Apparent Right ascension
Unknown
Apparent Declination
Unknown
Sunlit
N/A
Visualization observer readout
Local Sidereal Time
11:54:27
Azimuth
Unknown
Elevation
Unknown
Doppler factor
Unknown
Orbital elements
Apogee altitude
1,547.552 km
Perigee altitude
1,033.399 km
Semi-major axis
7,668.613 km
Eccentricity
0.03352
Inclination
99.6032°
RAAN
335.3743°
Arg. of periapsis
192.9022°
True anomaly
319.58349°
Mean anomaly
322.027°
Eccentric anomaly
320.81339°
Mean motion
3.23197 °/min
Orbital period
111.39 mins
BSTAR
0.0007377
Loading maneuver chart data...
Computing Atmospheric mass density...
Loading historical data...
Loading historical data...
Loading historical data...
Loading historical data...
Loading historical data...
Loading historical data...
Loading historical data...

Documentation

Showing up to 5 results
|